Tracking 29033 objects as of 22-Jun-2024
HD Live streaming from Space Station
objects crossing your sky now

BSAT-2C

Track BSAT-2C now!
BSAT-2C is classified as:


NORAD ID: 27830
Int'l Code: 2003-028A
Perigee: 36,079.0 km
Apogee: 36,115.0 km
Inclination: 8.5 °
Period: 1,451.6 minutes
Semi major axis: 42468 km
RCS: 12.6191 m2 (large)
Launch date: June 11, 2003
Source: Japan (JPN)
Launch site: FRENCH GUIANA (FRGUI)

Backup to BSAT-2A; direct digital broadcasts to homes in Japan and neighboring countries through its Ku-band transponders.
Your satellite tracking list
Your tracking list is empty




NASA's NSSDC Master Catalog

Two Line Element Set (TLE):
1 27830U 03028A   24173.78034486  .00000087  00000-0  00000-0 0  9995
2 27830   8.5442  58.6714 0004240 279.3779  80.3267  0.99199569 39454
Source of the keplerian elements: AFSPC